SCP
0 0 0 0 0 0 0 0 0 0 0 0 0 0 0 0 0 0 0 0 0 0 0 0 0 0 0 0 0 0 0 0 0 0 0 0 0 0 0 0 0 0 0 0
0 0 0 0 0 0 0 0 0 0 0 0 0 0 0 0 0 0 0 0 0 0 0 0 0 0 0 0 0 0 0 0 0 0 0 0 0 0 0 0 0 0 0 0
0 0 0 0 0 0 0 0 0 0 0 0 0 0 0 0 0 0 0 0 0 0 0 0 0 0 0 0 0 0 0 0 0 0 0 0 0 0 0 0 0 0 0 0
0 0 0 0 0 0 0 0 0 0 0 0 0 0 0 0 0 0 0 0 0 0 0 0 0 0 0 0 0 0 0 0 0 0 0 0 0 0 0 0 0 0 0 0
0 0 0 0 0 0 0 0 0 0 0 0 0 0 0 0 0 0 0 0 0 0 0 0 0 0 0 0 0 0 0 0 0 0 0 0 0 0 0 0 0 0 0 0
0 0 0 0 0 0 0 0 0 0 0 0 0 0 0 0 0 0 0 0 0 0 0 0 0 0 0 0 0 0 0 0 0 0 0 0 0 0 0 0 0 0 0 0
0 0 0 0 0 0 0 0 0 0 0 0 0 0 0 0 0 0 0 0 0 0 0 0 0 0 0 0 0 0 0 0 0 0 0 0 0 0 0 0 0 0 0 0
0 0 0 0 0 0 0 0 0 0 0 0 0 0 0 0 0 0 0 0 0 0 0 0 0 0 0 0 0 0 0 0 0 0 0 0 0 0 0 0 0 0 0 0
0 0 0 0 0 0 0 0 0 0 0 0 0 0 0 0 0 0 0 0 0 0 0 0 0 0 0 0 0 0 0 0 0 0 0 0 0 0 0 0 0 0 0 0
0 0 0 0 0 0 0 0 0 0 0 0 0 0 0 0 0 0 0 0 0 0 0 0 0 0 0 0 0 0 0 0 0 0 0 0 0 0 0 0 0 0 0 0
0 0 0 0 0 0 0 0 0 0 0 0 0 0 0 0 0 0 0 0 0 0 0 0 0 0 0 0 0 0 0 0 0 0 0 0 0 0 0 0 0 0 0 0
0 0 0 0 0 0 0 0 0 0 0 0 0 0 0 0 0 0 0 0 0 0 0 0 0 0 0 0 0 0 0 0 0 0 0 0 0 0 0 0 0 0 0 0
0 0 0 0 0 0 0 0 0 0 0 0 0 0 0 0 0 0 0 0 0 0 0 0 0 0 0 0 0 0 0 0 0 0 0 0 0 0 0 0 0 0 0 0
0 0 0 0 0 0 0 0 0 0 0 0 0 0 0 0 0 0 0 0 0 0 0 0 0 0 0 0 0 0 0 0 0 0 0 0 0 0 0 0 0 0 0 0
0 0 0 0 0 0 0 0 0 0 0 0 0 0 0 0 0 0 0 0 0 0 0 0 0 0 0 0 0 0 0 0 0 0 0 0 0 0 0 0 0 0 0 0
0 0 0 0 0 0 0 0 0 0 0 0 0 0 0 0 0 0 0 0 0 0 0 0 0 0 0 0 0 0 0 0 0 0 0 0 0 0 0 0 0 0 0 0
0 0 0 0 0 0 0 0 0 0 0 0 0 0 0 0 0 0 0 0 0 0 0 0 0 0 0 0 0 0 0 0 0 0 0 0 0 0 0 0 0 0 0 0
0 0 0 0 0 0 0 0 0 0 0 0 0 0 0 0 0 0 0 0 0 0 0 0 0 0 0 0 0 0 0 0 0 0 0 0 0 0 0 0 0 0 0 0
0 0 0 0 0 0 0 0 0 0 0 0 0 0 0 0 0 0 0 0 0 0 0 0 0 0 0 0 0 0 0 0 0 0 0 0 0 0 0 0 0 0 0 0
0 0 0 0 0 0 0 0 0 0 0 0 0 0 0 0 0 0 0 0 0 0 0 0 0 0 0 0 0 0 0 0 0 0 0 0 0 0 0 0 0 0 0 0
0 0 0 0 0 0 0 0 0 0 0 0 0 0 0 0 0 0 0 0 0 0 0 0 0 0 0 0 0 0 0 0 0 0 0 0 0 0 0 0 0 0 0 0
0 0 0 0 0 0 0 0 0 0 0 0 0 0 0 0 0 0 0 0 0 0 0 0 0 0 0 0 0 0 0 0 0 0 0 0 0 0 0 0 0 0 0 0
0 0 0 0 0 0 0 0 0 0 0 0 0 0 0 0 0 0 0 0 0 0 0 0 0 0 0 0 0 0 0 0 0 0 0 0 0 0 0 0 0 0 0 0
0 0 0 0 0 0 0 0 0 0 0 0 0 0 0 0 0 0 0 0 0 0 0 0 0 0 0 0 0 0 0 0 0 0 0 0 0 0 0 0 0 0 0 0
0 0 0 0 0 0 0 0 0 0 0 0 0 0 0 0 0 0 0 0 0 0 0 0 0 0 0 0 0 0 0 0 0 0 0 0 0 0 0 0 0 0 0 0
0 0 0 0 0 0 0 0 0 0 0 0 0 0 0 0 0 0 0 0 0 0 0 0 0 0 0 0 0 0 0 0 0 0 0 0 0 0 0 0 0 0 0 0
0 0 0 0 0 0 0 0 0 0 0 0 0 0 0 0 0 0 0 0 0 0 0 0 0 0 0 0 0 0 0 0 0 0 0 0 0 0 0 0 0 0 0 0
Wind_Speed
6 5 5 7 10 11 12 12 11 11 12 11 8 8 7 6 5 4 3 3 3 3 3 2 2 2 2 2 2 2 1 1 2 2 2 2 2 2 2 2 3 3 4 4
4 5 6 9 12 13 14 14 15 15 15 10 8 7 7 6 5 5 5 4 4 3 3 3 3 3 3 2 2 2 2 2 2 2 2 2 2 2 2 2 3 3 4 4
4 1 4 10 11 14 11 11 11 13 11 6 6 6 6 5 5 6 5 5 4 4 3 3 3 3 3 2 2 2 2 2 2 2 2 2 2 2 2 3 3 3 4 4
2 1 8 4 0 7 10 10 11 10 9 7 6 5 5 5 5 6 5 5 4 3 3 2 2 2 2 2 2 2 2 2 2 2 2 2 2 2 2 2 3 3 3 4
3 5 9 5 3 5 7 8 9 12 11 7 4 4 5 4 4 4 4 4 3 3 2 2 2 2 2 2 2 2 2 2 2 2 2 3 3 3 3 3 3 3 3 4
5 6 8 2 2 2 3 6 4 8 8 5 3 4 3 0 2 3 3 2 2 2 2 2 3 2 2 2 3 3 3 3 3 3 3 3 3 3 3 3 3 3 3 4
7 8 8 2 3 5 5 4 1 5 6 5 6 5 2 1 2 2 2 2 2 2 2 2 2 2 2 3 3 3 2 2 3 3 3 3 3 3 3 3 3 3 3 3
7 8 9 4 7 8 4 1 2 3 4 5 5 3 3 2 1 1 1 1 1 1 1 2 2 2 3 3 3 2 2 2 2 2 2 2 3 3 3 3 3 3 3 3
8 7 2 6 6 4 2 3 4 4 4 4 4 4 3 3 2 2 2 1 1 1 2 2 2 2 3 3 2 2 2 2 2 2 2 3 3 3 3 2 2 2 3 3
6 8 6 6 6 5 5 5 4 4 4 4 4 4 4 3 2 2 2 1 1 1 2 2 2 2 2 3 2 2 2 2 2 2 2 2 2 2 2 2 3 2 3 3
8 8 6 7 9 8 6 5 4 4 4 5 4 4 4 3 3 2 2 2 2 2 2 3 3 2 2 2 2 2 2 2 2 2 2 2 2 2 3 3 3 4 3 3
8 7 6 6 5 5 5 6 5 4 4 4 4 4 4 3 3 3 2 2 2 3 3 3 3 3 2 2 2 2 2 2 2 2 2 2 2 2 3 4 5 6 6 5
8 5 5 5 4 4 5 5 4 4 4 4 4 3 3 3 3 3 3 3 3 3 3 3 3 3 3 2 2 3 3 2 2 2 2 2 2 2 2 2 4 5 5 5
6 4 5 5 5 3 3 3 2 2 3 3 3 3 3 3 3 3 4 4 3 3 4 3 3 3 3 2 2 3 3 3 3 2 2 2 2 2 2 3 3 2 3 4
7 6 5 3 2 1 1 1 2 2 2 2 2 3 3 3 4 4 3 3 3 3 4 3 4 4 3 2 3 3 3 2 2 2 2 2 2 2 2 3 3 3 3 3
3 3 3 3 3 2 2 2 3 3 3 3 3 3 3 3 3 3 3 3 3 4 4 4 4 4 3 3 3 3 3 3 3 2 2 2 2 2 3 2 3 3 3 3
3 3 4 5 5 5 4 4 4 4 3 4 3 3 2 2 2 3 3 3 4 4 4 4 4 4 3 3 3 2 2 3 3 3 3 3 2 3 3 2 2 3 3 3
5 5 5 5 6 5 5 4 4 4 4 3 2 2 3 3 4 3 3 3 3 3 4 4 3 3 3 3 3 2 2 2 2 2 2 2 2 3 3 3 3 3 3 2
3 3 3 4 4 4 4 4 4 3 3 3 3 4 4 4 4 3 3 3 3 4 3 3 3 3 3 3 3 2 2 2 2 2 2 3 3 3 3 3 3 3 3 2
2 2 2 2 2 3 3 3 3 3 3 3 3 3 3 3 3 3 3 4 4 3 3 3 3 3 3 3 3 2 3 3 3 3 3 3 3 3 3 3 3 3 3 2
1 1 2 2 2 2 2 3 3 3 3 3 4 4 4 3 3 3 3 4 3 3 3 3 2 2 2 2 3 2 3 3 3 3 3 3 3 3 2 2 2 2 2 2
1 1 1 1 1 1 2 2 3 3 3 3 3 3 3 3 3 3 4 4 3 3 2 2 2 2 2 3 2 2 2 2 2 2 2 3 3 2 2 2 2 2 2 2
1 1 1 2 2 1 1 2 2 3 3 4 4 4 4 3 3 3 3 2 2 3 2 2 3 3 3 2 2 2 2 2 2 2 2 2 2 2 2 2 2 2 2 2
1 1 1 1 1 1 2 2 2 2 2 3 3 3 3 3 2 3 2 3 3 3 2 3 4 4 3 2 2 2 2 2 2 2 2 2 2 2 2 2 2 2 2 2
1 1 1 1 2 2 2 1 1 1 1 2 2 2 2 2 3 2 2 2 2 2 2 2 3 3 2 2 2 2 2 2 2 2 2 2 2 2 2 2 2 2 2 2
1 2 2 2 2 1 1 1 1 1 1 1 1 1 1 1 1 1 1 1 2 2 1 1 1 1 1 1 1 1 2 2 2 2 2 2 2 2 2 2 2 2 2 2
1 1 1 1 1 1 1 1 2 2 1 1 1 1 1 1 1 1 1 1 1 1 1 1 1 1 1 1 1 1 1 1 1 1 1 1 2 2 2 2 2 2 2 2
Wind_Direction
262 264 234 236 226 214 221 230 239 251 254 264 269 271 271 268 268 271 274 273 266 261 267 277 283 285 287 284 281 274 251 235 249 256 250 242 238 237 243 250 256 257 253 250
254 247 244 254 242 228 232 239 245 259 266 271 276 269 268 260 252 260 266 269 266 260 263 269 277 284 288 282 276 266 255 251 256 259 258 248 240 238 242 249 252 253 253 257
240 254 276 253 232 216 219 223 229 242 253 267 265 259 263 261 251 253 262 266 262 254 254 258 264 272 275 280 276 261 256 255 256 254 256 259 251 245 249 256 258 260 261 262
233 210 239 253 181 215 223 236 232 248 261 259 260 274 273 260 255 260 265 260 258 257 256 257 264 274 277 275 266 255 251 251 253 254 261 267 260 255 261 263 263 266 266 266
204 239 266 269 214 198 212 250 235 239 253 265 286 286 264 242 238 253 260 256 254 258 262 266 268 267 265 268 261 249 248 251 255 256 261 264 260 260 260 261 265 267 265 263
202 230 247 256 148 184 197 257 229 226 239 240 216 251 269 208 265 277 276 260 249 260 270 272 274 262 253 261 256 253 258 260 262 259 257 259 261 265 264 261 264 268 263 262
218 236 261 260 157 168 207 257 213 213 223 211 214 247 304 312 298 293 290 275 252 243 249 258 258 248 249 259 266 272 270 266 264 260 258 257 259 258 254 253 259 262 266 267
203 223 246 157 161 204 242 310 237 223 223 222 231 252 264 267 267 274 292 290 268 254 273 279 264 247 252 268 285 285 268 261 263 266 266 257 251 251 246 247 254 259 262 270
206 227 296 180 210 236 252 249 248 238 236 221 230 241 244 248 251 261 270 275 268 251 275 290 279 255 256 276 284 277 267 265 269 270 263 254 248 246 246 246 251 258 259 265
241 255 256 241 251 256 249 251 250 245 236 222 231 235 238 242 245 254 260 256 247 246 261 284 291 281 266 271 269 260 267 274 270 263 263 258 252 248 246 248 251 253 262 268
246 267 277 256 244 246 250 252 244 239 234 228 222 229 228 233 240 245 254 256 242 243 254 270 280 280 278 266 255 253 260 264 266 264 265 266 261 257 255 254 257 262 263 269
241 240 232 252 251 235 233 238 234 224 228 229 220 221 229 235 239 239 242 245 246 251 254 265 269 274 276 261 245 241 251 261 262 262 264 265 270 273 256 256 269 267 269 270
249 262 256 263 269 239 231 238 238 226 217 221 226 221 226 236 236 237 240 242 244 251 258 263 267 269 270 262 252 243 245 255 262 261 261 263 268 275 286 275 259 263 270 275
239 241 247 248 255 247 234 230 223 224 226 223 218 219 222 228 231 236 244 251 252 252 255 256 258 266 272 263 253 247 249 251 253 253 254 253 258 268 276 284 293 290 276 278
243 242 239 245 247 224 192 173 190 220 218 219 211 211 215 223 232 245 255 256 252 248 250 252 254 263 271 256 251 249 248 246 247 252 253 253 254 261 265 270 278 288 296 293
245 231 216 216 222 217 198 197 210 223 217 216 221 228 233 239 248 256 252 240 240 247 251 253 256 261 261 248 244 246 242 242 250 250 251 253 252 256 261 265 275 281 287 297
207 222 220 227 228 224 222 221 223 225 221 219 228 233 231 232 243 250 254 253 252 253 251 248 253 257 249 239 238 240 241 238 241 246 247 250 253 257 261 265 273 280 282 293
237 234 224 223 220 219 223 226 227 226 228 231 224 219 220 224 238 251 262 268 266 266 261 252 248 249 245 238 239 238 235 237 236 242 249 248 252 256 259 263 271 275 283 291
240 233 231 232 224 213 217 225 230 233 233 218 217 227 236 242 246 251 256 255 252 259 263 255 249 251 247 242 239 232 229 234 239 241 246 253 257 254 256 262 267 271 278 283
242 233 224 225 217 213 217 224 225 230 228 217 220 231 241 247 247 247 248 252 252 258 260 256 251 247 241 235 233 231 227 231 237 241 243 247 251 254 257 262 267 273 277 277
246 230 213 213 226 233 225 213 211 224 230 220 220 230 241 252 248 241 243 259 267 259 251 244 244 241 235 230 228 226 223 231 236 238 242 248 253 258 260 264 268 272 279 284
264 243 237 230 224 252 258 232 220 222 228 233 236 235 236 244 246 251 251 253 261 259 257 243 242 239 234 230 225 220 224 228 232 237 242 247 252 256 258 263 268 276 283 287
285 267 252 241 233 251 275 252 228 221 223 229 232 231 233 240 238 241 260 254 251 252 257 246 242 236 224 224 223 221 223 230 236 241 245 249 251 252 255 261 266 270 277 282
285 273 264 254 203 211 245 260 252 243 238 242 238 233 232 238 249 248 258 251 253 259 258 248 245 239 228 226 220 221 225 231 235 240 246 251 253 254 257 261 268 274 276 279
278 271 241 210 214 230 234 241 258 257 242 245 250 241 232 233 241 256 257 243 246 264 264 246 243 243 237 221 219 223 228 232 235 237 244 251 256 258 262 265 267 270 271 274
267 258 253 255 255 244 229 225 233 239 237 249 268 267 258 247 231 238 238 233 239 250 260 258 253 246 233 221 223 229 236 244 248 247 245 251 256 261 263 266 272 272 270 272
270 263 254 265 267 238 228 228 229 235 234 235 258 276 276 262 231 219 218 230 229 235 249 258 253 246 237 231 229 232 237 241 241 240 240 242 247 253 259 263 267 270 273 272